START_TIME,STEP,MOV.,P11,t_acc.,P23,t_acc.,P27,t_acc.,A4,t_acc.
1979-07-14 12:00:47.380 ,0,0,3.,4.8,0.,4.8,0.,4.8,0.,4.8
1979-07-14 12:00:52.180 ,0,0,4.,4.8,0.,4.8,0.,4.8,0.,4.8
1979-07-14 12:00:56.980 ,0,0,9.,4.8,0.,4.8,0.,4.8,0.,4.8
1979-07-14 12:01:01.780 ,0,0,5.,4.8,0.,4.8,0.,4.8,1.,4.8
1979-07-14 12:01:06.580 ,0,0,8.,4.8,0.,4.8,0.,4.8,0.,4.8
1979-07-14 12:01:11.380 ,0,0,4.,4.8,0.,4.8,0.,4.8,0.,4.8
1979-07-14 12:01:16.180 ,0,0,3.,4.8,0.,4.8,0.,4.8,0.,4.8
1979-07-14 12:01:20.980 ,0,0,7.,4.8,0.,4.8,0.,4.8,0.,4.8
1979-07-14 12:01:25.780 ,0,0,7.,4.8,0.,4.8,0.,4.8,0.,4.8
1979-07-14 12:01:30.580 ,0,0,13.,4.8,0.,4.8,0.,4.8,1.,4.8
1979-07-14 12:01:35.380 ,2,0,6.,4.8,0.,4.8,0.,4.8,0.,4.8
1979-07-14 12:01:40.180 ,2,0,2.,4.8,0.,4.8,0.,4.8,0.,4.8
1979-07-14 12:01:44.980 ,2,0,4.,4.8,0.,4.8,0.,4.8,0.,4.8
1979-07-14 12:01:49.780 ,2,0,4.,4.8,0.,4.8,0.,4.8,0.,4.8
1979-07-14 12:01:54.580 ,2,0,4.,4.8,0.,4.8,0.,4.8,0.,4.8
1979-07-14 12:01:59.380 ,2,0,4.,4.8,0.,4.8,0.,4.8,0.,4.8
1979-07-14 12:02:04.180 ,2,0,5.,4.8,0.,4.8,0.,4.8,0.,4.8
1979-07-14 12:02:08.980 ,2,0,3.,4.8,0.,4.8,0.,4.8,0.,4.8
1979-07-14 12:02:13.780 ,2,0,11.,4.8,0.,4.8,0.,4.8,0.,4.8
1979-07-14 12:02:18.580 ,2,0,7.,4.8,0.,4.8,0.,4.8,1.,4.8
1979-07-14 12:02:23.380 ,3,0,5.,4.8,0.,4.8,0.,4.8,0.,4.8
1979-07-14 12:02:28.180 ,3,0,4.,4.8,0.,4.8,0.,4.8,0.,4.8
1979-07-14 12:02:32.980 ,3,0,5.,4.8,0.,4.8,0.,4.8,1.,4.8
1979-07-14 12:02:37.780 ,3,0,4.,4.8,0.,4.8,0.,4.8,0.,4.8
1979-07-14 12:02:42.580 ,3,0,4.,4.8,0.,4.8,0.,4.8,0.,4.8
1979-07-14 12:02:47.380 ,3,0,8.,4.8,0.,4.8,0.,4.8,0.,4.8
1979-07-14 12:02:52.180 ,3,0,6.,4.8,0.,4.8,0.,4.8,0.,4.8
1979-07-14 12:02:56.980 ,3,0,5.,4.8,0.,4.8,0.,4.8,0.,4.8
1979-07-14 12:03:01.780 ,3,0,10.,4.8,0.,4.8,0.,4.8,0.,4.8
1979-07-14 12:03:06.580 ,3,0,8.,4.8,0.,4.8,0.,4.8,0.,4.8
1979-07-14 12:03:59.380 ,0,0,6.,4.8,0.,4.8,0.,4.8,0.,4.8
1979-07-14 12:04:04.180 ,0,0,8.,4.8,0.,4.8,0.,4.8,0.,4.8
1979-07-14 12:04:08.980 ,0,0,8.,4.8,0.,4.8,0.,4.8,0.,4.8
1979-07-14 12:04:13.780 ,0,0,6.,4.8,0.,4.8,0.,4.8,0.,4.8
1979-07-14 12:04:18.580 ,0,0,8.,4.8,0.,4.8,0.,4.8,0.,4.8
1979-07-14 12:04:23.380 ,0,0,7.,4.8,0.,4.8,0.,4.8,0.,4.8
1979-07-14 12:04:28.180 ,0,0,7.,4.8,0.,4.8,0.,4.8,0.,4.8
1979-07-14 12:04:32.980 ,0,0,6.,4.8,0.,4.8,0.,4.8,0.,4.8
1979-07-14 12:04:37.780 ,0,0,4.,4.8,0.,4.8,0.,4.8,1.,4.8
1979-07-14 12:04:42.580 ,0,0,8.,4.8,0.,4.8,0.,4.8,0.,4.8
1979-07-14 12:04:47.380 ,6,0,8.,4.8,0.,4.8,0.,4.8,0.,4.8
1979-07-14 12:04:52.180 ,6,0,4.,4.8,0.,4.8,0.,4.8,0.,4.8
1979-07-14 12:04:56.980 ,6,0,3.,4.8,0.,4.8,0.,4.8,0.,4.8
1979-07-14 12:05:01.780 ,6,0,8.,4.8,0.,4.8,0.,4.8,0.,4.8
1979-07-14 12:05:06.580 ,6,0,6.,4.8,0.,4.8,0.,4.8,1.,4.8
1979-07-14 12:05:11.380 ,6,0,8.,4.8,0.,4.8,0.,4.8,0.,4.8
1979-07-14 12:05:16.180 ,6,0,8.,4.8,0.,4.8,0.,4.8,0.,4.8
1979-07-14 12:05:20.980 ,6,0,6.,4.8,0.,4.8,0.,4.8,0.,4.8
1979-07-14 12:05:25.780 ,6,0,5.,4.8,0.,4.8,0.,4.8,0.,4.8
1979-07-14 12:05:30.580 ,6,0,3.,4.8,0.,4.8,0.,4.8,0.,4.8
1979-07-14 12:05:35.380 ,7,0,5.,4.8,0.,4.8,0.,4.8,0.,4.8
1979-07-14 12:05:40.180 ,7,0,6.,4.8,0.,4.8,0.,4.8,0.,4.8
1979-07-14 12:05:44.980 ,7,0,3.,4.8,0.,4.8,0.,4.8,0.,4.8
1979-07-14 12:05:49.780 ,7,0,4.,4.8,0.,4.8,0.,4.8,0.,4.8
1979-07-14 12:05:54.580 ,7,0,3.,4.8,0.,4.8,0.,4.8,0.,4.8
1979-07-14 12:05:59.380 ,7,0,3.,4.8,0.,4.8,0.,4.8,0.,4.8
1979-07-14 12:06:04.180 ,7,0,3.,4.8,0.,4.8,0.,4.8,0.,4.8
1979-07-14 12:06:08.980 ,7,0,5.,4.8,0.,4.8,0.,4.8,0.,4.8
1979-07-14 12:06:13.780 ,7,0,2.,4.8,0.,4.8,0.,4.8,0.,4.8
1979-07-14 12:06:18.580 ,7,0,4.,4.8,0.,4.8,0.,4.8,0.,4.8
1979-07-14 12:06:23.380 ,7,0,4.,4.8,0.,4.8,0.,4.8,0.,4.8
1979-07-14 12:06:28.180 ,7,0,4.,4.8,0.,4.8,0.,4.8,0.,4.8
1979-07-14 12:06:32.980 ,7,0,1.,4.8,0.,4.8,0.,4.8,0.,4.8
1979-07-14 12:06:37.780 ,7,0,3.,4.8,0.,4.8,0.,4.8,0.,4.8
1979-07-14 12:06:42.580 ,7,0,3.,4.8,0.,4.8,0.,4.8,0.,4.8
1979-07-14 12:06:47.380 ,7,0,4.,4.8,0.,4.8,0.,4.8,0.,4.8
1979-07-14 12:06:52.180 ,7,0,3.,4.8,0.,4.8,0.,4.8,0.,4.8
1979-07-14 12:06:56.980 ,7,0,6.,4.8,0.,4.8,0.,4.8,0.,4.8
1979-07-14 12:07:01.780 ,7,0,0.,4.8,0.,4.8,0.,4.8,0.,4.8
1979-07-14 12:07:06.580 ,7,0,1.,4.8,0.,4.8,0.,4.8,0.,4.8
1979-07-14 12:07:11.380 ,0,0,0.,4.8,0.,4.8,0.,4.8,0.,4.8
1979-07-14 12:07:16.180 ,0,0,3.,4.8,0.,4.8,0.,4.8,0.,4.8
1979-07-14 12:07:20.980 ,0,0,4.,4.8,0.,4.8,0.,4.8,0.,4.8
1979-07-14 12:07:25.780 ,0,0,,0,,0,,0,,0
1979-07-14 12:07:30.580 ,0,0,,0,,0,,0,,0
1979-07-14 12:07:35.380 ,0,0,8.,4.8,0.,4.8,0.,4.8,0.,4.8
1979-07-14 12:07:40.180 ,0,0,12.,4.8,0.,4.8,0.,4.8,1.,4.8
1979-07-14 12:07:44.980 ,0,0,,0,,0,,0,,0
1979-07-14 12:07:49.780 ,0,0,,0,,0,,0,,0
1979-07-14 12:07:54.580 ,0,0,,0,,0,,0,,0
1979-07-14 12:07:59.380 ,0,0,7.,4.8,0.,4.8,0.,4.8,0.,4.8
1979-07-14 12:08:04.180 ,0,0,10.,4.8,0.,4.8,0.,4.8,0.,4.8
1979-07-14 12:08:08.980 ,0,0,8.,4.8,0.,4.8,0.,4.8,1.,4.8
1979-07-14 12:08:13.780 ,0,0,2.,4.8,0.,4.8,0.,4.8,0.,4.8
1979-07-14 12:08:18.580 ,0,0,4.,4.8,0.,4.8,0.,4.8,0.,4.8
1979-07-14 12:08:23.380 ,0,0,7.,4.8,0.,4.8,0.,4.8,0.,4.8
1979-07-14 12:08:28.180 ,0,0,5.,4.8,0.,4.8,0.,4.8,0.,4.8
1979-07-14 12:08:32.980 ,0,0,7.,4.8,0.,4.8,0.,4.8,1.,4.8
1979-07-14 12:08:37.780 ,0,0,10.,4.8,0.,4.8,0.,4.8,0.,4.8
1979-07-14 12:08:42.580 ,0,0,8.,4.8,0.,4.8,0.,4.8,0.,4.8
1979-07-14 12:08:47.380 ,4,0,8.,4.8,0.,4.8,0.,4.8,0.,4.8
1979-07-14 12:08:52.180 ,4,0,1.,4.8,0.,4.8,0.,4.8,0.,4.8
1979-07-14 12:08:56.980 ,4,0,4.,4.8,0.,4.8,0.,4.8,0.,4.8
1979-07-14 12:09:01.780 ,4,0,3.,4.8,0.,4.8,0.,4.8,0.,4.8
1979-07-14 12:09:06.580 ,4,0,11.,4.8,0.,4.8,0.,4.8,0.,4.8
1979-07-14 12:09:11.380 ,4,0,9.,4.8,0.,4.8,0.,4.8,0.,4.8
1979-07-14 12:09:16.180 ,4,0,5.,4.8,0.,4.8,0.,4.8,0.,4.8
1979-07-14 12:09:20.980 ,4,0,7.,4.8,0.,4.8,0.,4.8,0.,4.8
1979-07-14 12:09:25.780 ,4,0,5.,4.8,0.,4.8,0.,4.8,0.,4.8
1979-07-14 12:09:30.580 ,4,0,5.,4.8,0.,4.8,0.,4.8,0.,4.8
1979-07-14 12:09:35.380 ,3,0,5.,4.8,0.,4.8,0.,4.8,0.,4.8
1979-07-14 12:09:40.180 ,3,0,10.,4.8,0.,4.8,0.,4.8,0.,4.8
1979-07-14 12:09:44.980 ,3,0,5.,4.8,0.,4.8,0.,4.8,0.,4.8
1979-07-14 12:09:49.780 ,3,0,6.,4.8,0.,4.8,0.,4.8,1.,4.8
1979-07-14 12:09:54.580 ,3,0,4.,4.8,0.,4.8,0.,4.8,0.,4.8
1979-07-14 12:09:59.380 ,3,0,5.,4.8,0.,4.8,0.,4.8,1.,4.8
1979-07-14 12:10:04.180 ,3,0,12.,4.8,0.,4.8,0.,4.8,1.,4.8
1979-07-14 12:10:08.980 ,3,0,4.,4.8,0.,4.8,0.,4.8,0.,4.8
1979-07-14 12:10:13.780 ,3,0,12.,4.8,0.,4.8,0.,4.8,0.,4.8
1979-07-14 12:10:18.580 ,3,0,4.,4.8,0.,4.8,0.,4.8,0.,4.8
1979-07-14 12:10:23.380 ,2,0,7.,4.8,0.,4.8,0.,4.8,0.,4.8
1979-07-14 12:10:28.180 ,2,0,3.,4.8,0.,4.8,0.,4.8,0.,4.8
1979-07-14 12:10:32.980 ,2,0,5.,4.8,0.,4.8,0.,4.8,0.,4.8
1979-07-14 12:10:37.780 ,2,0,14.,4.8,0.,4.8,0.,4.8,0.,4.8
1979-07-14 12:10:42.580 ,2,0,10.,4.8,0.,4.8,0.,4.8,0.,4.8
1979-07-14 12:10:47.380 ,2,0,7.,4.8,0.,4.8,0.,4.8,0.,4.8
1979-07-14 12:10:52.180 ,2,0,6.,4.8,0.,4.8,0.,4.8,0.,4.8
1979-07-14 12:10:56.980 ,2,0,6.,4.8,0.,4.8,0.,4.8,0.,4.8
1979-07-14 12:11:01.780 ,2,0,6.,4.8,0.,4.8,0.,4.8,0.,4.8
1979-07-14 12:11:06.580 ,2,0,3.,4.8,0.,4.8,0.,4.8,1.,4.8
1979-07-14 12:11:11.380 ,1,0,7.,4.8,0.,4.8,0.,4.8,1.,4.8
1979-07-14 12:11:16.180 ,1,0,5.,4.8,0.,4.8,0.,4.8,0.,4.8
1979-07-14 12:11:20.980 ,1,0,6.,4.8,0.,4.8,0.,4.8,0.,4.8
1979-07-14 12:11:25.780 ,1,0,3.,4.8,0.,4.8,0.,4.8,0.,4.8
1979-07-14 12:11:30.580 ,1,0,6.,4.8,0.,4.8,0.,4.8,0.,4.8
1979-07-14 12:11:35.380 ,1,0,5.,4.8,0.,4.8,0.,4.8,0.,4.8
1979-07-14 12:11:40.180 ,1,0,7.,4.8,0.,4.8,0.,4.8,0.,4.8
1979-07-14 12:11:44.980 ,1,0,6.,4.8,0.,4.8,0.,4.8,0.,4.8
1979-07-14 12:11:49.780 ,1,0,8.,4.8,0.,4.8,0.,4.8,0.,4.8
1979-07-14 12:11:54.580 ,1,0,4.,4.8,0.,4.8,0.,4.8,0.,4.8
1979-07-14 12:11:59.380 ,0,0,4.,4.8,0.,4.8,0.,4.8,0.,4.8
1979-07-14 12:12:04.180 ,0,0,8.,4.8,0.,4.8,0.,4.8,0.,4.8
1979-07-14 12:12:08.980 ,0,0,8.,4.8,0.,4.8,0.,4.8,0.,4.8
1979-07-14 12:12:13.780 ,0,0,4.,4.8,0.,4.8,0.,4.8,0.,4.8
1979-07-14 12:12:18.580 ,0,0,9.,4.8,0.,4.8,0.,4.8,0.,4.8
1979-07-14 12:12:23.380 ,0,0,5.,4.8,0.,4.8,0.,4.8,0.,4.8
1979-07-14 12:12:28.180 ,0,0,2.,4.8,0.,4.8,0.,4.8,0.,4.8
1979-07-14 12:12:32.980 ,0,0,4.,4.8,0.,4.8,0.,4.8,0.,4.8
1979-07-14 12:12:37.780 ,0,0,5.,4.8,0.,4.8,0.,4.8,0.,4.8
1979-07-14 12:12:42.580 ,0,0,9.,4.8,0.,4.8,0.,4.8,0.,4.8
1979-07-14 12:12:47.380 ,0,0,3.,4.8,0.,4.8,0.,4.8,0.,4.8
1979-07-14 12:12:52.180 ,0,0,6.,4.8,0.,4.8,0.,4.8,0.,4.8
1979-07-14 12:12:56.980 ,0,0,8.,4.8,0.,4.8,0.,4.8,0.,4.8
1979-07-14 12:13:01.780 ,0,0,4.,4.8,0.,4.8,0.,4.8,0.,4.8
1979-07-14 12:13:06.580 ,0,0,3.,4.8,0.,4.8,0.,4.8,1.,4.8
1979-07-14 12:13:11.380 ,0,0,6.,4.8,0.,4.8,0.,4.8,0.,4.8
1979-07-14 12:13:16.180 ,0,0,5.,4.8,0.,4.8,0.,4.8,0.,4.8
1979-07-14 12:13:20.980 ,0,0,6.,4.8,0.,4.8,0.,4.8,0.,4.8
1979-07-14 12:13:25.780 ,0,0,6.,4.8,0.,4.8,0.,4.8,0.,4.8
1979-07-14 12:13:30.580 ,0,0,13.,4.8,0.,4.8,0.,4.8,0.,4.8
1979-07-14 12:13:35.380 ,1,0,6.,4.8,0.,4.8,0.,4.8,0.,4.8
1979-07-14 12:13:40.180 ,1,0,11.,4.8,0.,4.8,0.,4.8,0.,4.8
1979-07-14 12:13:44.980 ,1,0,4.,4.8,0.,4.8,0.,4.8,0.,4.8
1979-07-14 12:13:49.780 ,1,0,8.,4.8,0.,4.8,0.,4.8,0.,4.8
1979-07-14 12:13:54.580 ,1,0,5.,4.8,0.,4.8,0.,4.8,0.,4.8
1979-07-14 12:13:59.380 ,1,0,8.,4.8,0.,4.8,0.,4.8,0.,4.8
1979-07-14 12:14:04.180 ,1,0,3.,4.8,0.,4.8,0.,4.8,2.,4.8
1979-07-14 12:14:08.980 ,1,0,7.,4.8,0.,4.8,0.,4.8,0.,4.8
1979-07-14 12:14:13.780 ,1,0,4.,4.8,0.,4.8,0.,4.8,0.,4.8
1979-07-14 12:14:18.580 ,1,0,6.,4.8,0.,4.8,0.,4.8,0.,4.8
1979-07-14 12:14:23.380 ,2,0,2.,4.8,0.,4.8,0.,4.8,0.,4.8
1979-07-14 12:14:28.180 ,2,0,7.,4.8,0.,4.8,0.,4.8,0.,4.8
1979-07-14 12:14:32.980 ,2,0,6.,4.8,0.,4.8,0.,4.8,0.,4.8
1979-07-14 12:14:37.780 ,2,0,4.,4.8,0.,4.8,0.,4.8,0.,4.8
1979-07-14 12:14:42.580 ,2,0,6.,4.8,0.,4.8,0.,4.8,1.,4.8
1979-07-14 12:14:47.380 ,2,0,6.,4.8,0.,4.8,0.,4.8,0.,4.8
1979-07-14 12:14:52.180 ,2,0,7.,4.8,0.,4.8,0.,4.8,0.,4.8
1979-07-14 12:14:56.980 ,2,0,3.,4.8,0.,4.8,0.,4.8,1.,4.8
1979-07-14 12:15:01.780 ,2,0,5.,4.8,0.,4.8,0.,4.8,1.,4.8
1979-07-14 12:15:06.580 ,2,0,6.,4.8,0.,4.8,0.,4.8,1.,4.8
1979-07-14 12:15:11.380 ,3,0,9.,4.8,0.,4.8,0.,4.8,0.,4.8
1979-07-14 12:15:16.180 ,3,0,5.,4.8,0.,4.8,0.,4.8,0.,4.8
1979-07-14 12:15:20.980 ,3,0,3.,4.8,0.,4.8,0.,4.8,0.,4.8
1979-07-14 12:15:25.780 ,3,0,5.,4.8,0.,4.8,0.,4.8,0.,4.8
1979-07-14 12:15:30.580 ,3,0,6.,4.8,0.,4.8,0.,4.8,1.,4.8
1979-07-14 12:15:35.380 ,3,0,5.,4.8,0.,4.8,0.,4.8,0.,4.8
1979-07-14 12:15:40.180 ,3,0,1.,4.8,0.,4.8,0.,4.8,1.,4.8
1979-07-14 12:15:44.980 ,3,0,6.,4.8,0.,4.8,0.,4.8,0.,4.8
1979-07-14 12:15:49.780 ,3,0,9.,4.8,0.,4.8,0.,4.8,0.,4.8
1979-07-14 12:15:54.580 ,3,0,8.,4.8,0.,4.8,0.,4.8,0.,4.8
1979-07-14 12:15:59.380 ,4,0,6.,4.8,0.,4.8,0.,4.8,1.,4.8
1979-07-14 12:16:04.180 ,4,0,4.,4.8,0.,4.8,0.,4.8,0.,4.8
1979-07-14 12:16:08.980 ,4,0,6.,4.8,0.,4.8,0.,4.8,0.,4.8
1979-07-14 12:16:13.780 ,4,0,5.,4.8,0.,4.8,0.,4.8,0.,4.8
1979-07-14 12:16:18.580 ,4,0,5.,4.8,0.,4.8,0.,4.8,0.,4.8
1979-07-14 12:16:23.380 ,4,0,8.,4.8,0.,4.8,0.,4.8,0.,4.8
1979-07-14 12:16:28.180 ,4,0,4.,4.8,0.,4.8,0.,4.8,0.,4.8
1979-07-14 12:16:32.980 ,4,0,3.,4.8,0.,4.8,0.,4.8,1.,4.8
1979-07-14 12:16:37.780 ,4,0,6.,4.8,0.,4.8,0.,4.8,0.,4.8
1979-07-14 12:16:42.580 ,4,0,7.,4.8,0.,4.8,0.,4.8,0.,4.8
1979-07-14 12:16:47.380 ,5,0,3.,4.8,0.,4.8,0.,4.8,2.,4.8
1979-07-14 12:16:52.180 ,5,0,6.,4.8,0.,4.8,0.,4.8,0.,4.8
1979-07-14 12:16:56.980 ,5,0,3.,4.8,0.,4.8,0.,4.8,0.,4.8
1979-07-14 12:17:01.780 ,5,0,6.,4.8,0.,4.8,0.,4.8,0.,4.8
1979-07-14 12:17:06.580 ,5,0,7.,4.8,0.,4.8,0.,4.8,0.,4.8
1979-07-14 12:17:11.380 ,5,0,9.,4.8,0.,4.8,0.,4.8,0.,4.8
1979-07-14 12:17:16.180 ,5,0,10.,4.8,0.,4.8,0.,4.8,0.,4.8
1979-07-14 12:17:20.980 ,5,0,9.,4.8,0.,4.8,0.,4.8,0.,4.8
1979-07-14 12:17:25.780 ,5,0,7.,4.8,0.,4.8,0.,4.8,0.,4.8
1979-07-14 12:17:30.580 ,5,0,10.,4.8,0.,4.8,0.,4.8,0.,4.8
1979-07-14 12:17:35.380 ,6,0,5.,4.8,0.,4.8,0.,4.8,0.,4.8
1979-07-14 12:17:40.180 ,6,0,6.,4.8,0.,4.8,0.,4.8,0.,4.8
1979-07-14 12:17:44.980 ,6,0,3.,4.8,0.,4.8,0.,4.8,0.,4.8
1979-07-14 12:17:49.780 ,6,0,3.,4.8,0.,4.8,0.,4.8,0.,4.8
1979-07-14 12:17:54.580 ,6,0,8.,4.8,0.,4.8,0.,4.8,0.,4.8
1979-07-14 12:17:59.380 ,6,0,6.,4.8,0.,4.8,0.,4.8,1.,4.8
1979-07-14 12:18:04.180 ,6,0,4.,4.8,0.,4.8,0.,4.8,1.,4.8
1979-07-14 12:18:08.980 ,6,0,5.,4.8,0.,4.8,0.,4.8,0.,4.8
1979-07-14 12:18:13.780 ,6,0,6.,4.8,0.,4.8,0.,4.8,0.,4.8
1979-07-14 12:18:18.580 ,6,0,4.,4.8,0.,4.8,0.,4.8,0.,4.8
1979-07-14 12:18:23.380 ,7,0,5.,4.8,0.,4.8,0.,4.8,0.,4.8
1979-07-14 12:18:28.180 ,7,0,7.,4.8,0.,4.8,0.,4.8,0.,4.8
1979-07-14 12:18:32.980 ,7,0,3.,4.8,0.,4.8,0.,4.8,0.,4.8
1979-07-14 12:18:37.780 ,7,0,1.,4.8,0.,4.8,0.,4.8,0.,4.8
1979-07-14 12:18:42.580 ,7,0,3.,4.8,0.,4.8,0.,4.8,0.,4.8
1979-07-14 12:18:47.380 ,7,0,2.,4.8,0.,4.8,0.,4.8,0.,4.8
1979-07-14 12:18:52.180 ,7,0,1.,4.8,0.,4.8,0.,4.8,0.,4.8
1979-07-14 12:18:56.980 ,7,0,3.,4.8,0.,4.8,0.,4.8,0.,4.8
1979-07-14 12:19:01.780 ,7,0,5.,4.8,0.,4.8,0.,4.8,0.,4.8
1979-07-14 12:19:06.580 ,7,0,2.,4.8,0.,4.8,0.,4.8,0.,4.8
1979-07-14 12:19:11.380 ,3,1,2.,4.8,0.,4.8,0.,4.8,0.,4.8
1979-07-14 12:19:16.180 ,3,1,7.,4.8,0.,4.8,0.,4.8,0.,4.8
1979-07-14 12:19:20.980 ,3,1,7.,4.8,0.,4.8,0.,4.8,0.,4.8
1979-07-14 12:19:25.780 ,3,1,7.,4.8,0.,4.8,0.,4.8,0.,4.8
1979-07-14 12:19:30.580 ,3,1,12.,4.8,0.,4.8,0.,4.8,1.,4.8
1979-07-14 12:19:35.380 ,0,1,10.,4.8,0.,4.8,0.,4.8,0.,4.8
1979-07-14 12:19:40.180 ,0,1,6.,4.8,0.,4.8,0.,4.8,0.,4.8
1979-07-14 12:19:44.980 ,0,1,7.,4.8,0.,4.8,0.,4.8,0.,4.8
1979-07-14 12:19:49.780 ,0,1,3.,4.8,0.,4.8,0.,4.8,0.,4.8
1979-07-14 12:19:54.580 ,0,1,3.,4.8,0.,4.8,0.,4.8,0.,4.8
1979-07-14 12:19:59.380 ,4,1,3.,4.8,0.,4.8,0.,4.8,1.,4.8
1979-07-14 12:20:04.180 ,4,1,8.,4.8,0.,4.8,0.,4.8,0.,4.8
1979-07-14 12:20:08.980 ,4,1,4.,4.8,0.,4.8,0.,4.8,0.,4.8
1979-07-14 12:20:13.780 ,4,1,2.,4.8,0.,4.8,0.,4.8,0.,4.8
1979-07-14 12:20:18.580 ,4,1,3.,4.8,0.,4.8,0.,4.8,0.,4.8
1979-07-14 12:20:23.380 ,7,1,10.,4.8,0.,4.8,0.,4.8,1.,4.8
1979-07-14 12:20:28.180 ,7,1,3.,4.8,0.,4.8,0.,4.8,1.,4.8
1979-07-14 12:20:32.980 ,7,1,0.,4.8,0.,4.8,0.,4.8,0.,4.8
1979-07-14 12:20:37.780 ,7,1,3.,4.8,0.,4.8,0.,4.8,0.,4.8
1979-07-14 12:20:42.580 ,7,1,5.,4.8,0.,4.8,0.,4.8,0.,4.8
1979-07-14 12:20:47.380 ,3,1,4.,4.8,0.,4.8,0.,4.8,0.,4.8
1979-07-14 12:20:52.180 ,3,1,5.,4.8,0.,4.8,0.,4.8,0.,4.8
1979-07-14 12:20:56.980 ,3,1,2.,4.8,0.,4.8,0.,4.8,0.,4.8
1979-07-14 12:21:01.780 ,3,1,6.,4.8,0.,4.8,0.,4.8,1.,4.8
1979-07-14 12:21:06.580 ,3,1,5.,4.8,0.,4.8,0.,4.8,0.,4.8
1979-07-14 12:21:11.380 ,0,1,1.,4.8,0.,4.8,0.,4.8,1.,4.8
1979-07-14 12:21:16.180 ,0,1,11.,4.8,0.,4.8,0.,4.8,1.,4.8
1979-07-14 12:21:20.980 ,0,1,2.,4.8,0.,4.8,0.,4.8,0.,4.8
1979-07-14 12:21:25.780 ,0,1,4.,4.8,0.,4.8,0.,4.8,0.,4.8
1979-07-14 12:21:30.580 ,0,1,8.,4.8,0.,4.8,0.,4.8,0.,4.8
1979-07-14 12:21:35.380 ,4,1,1.,4.8,0.,4.8,0.,4.8,0.,4.8
1979-07-14 12:21:40.180 ,4,1,6.,4.8,0.,4.8,0.,4.8,0.,4.8
1979-07-14 12:21:44.980 ,4,1,7.,4.8,0.,4.8,0.,4.8,0.,4.8
1979-07-14 12:21:49.780 ,4,1,5.,4.8,0.,4.8,0.,4.8,0.,4.8
1979-07-14 12:21:54.580 ,4,1,5.,4.8,0.,4.8,0.,4.8,0.,4.8
1979-07-14 12:21:59.380 ,7,1,6.,4.8,0.,4.8,0.,4.8,0.,4.8
1979-07-14 12:22:04.180 ,7,1,5.,4.8,0.,4.8,0.,4.8,0.,4.8
1979-07-14 12:22:08.980 ,7,1,6.,4.8,0.,4.8,0.,4.8,0.,4.8
1979-07-14 12:22:13.780 ,7,1,5.,4.8,0.,4.8,0.,4.8,0.,4.8
1979-07-14 12:22:18.580 ,7,1,1.,4.8,0.,4.8,0.,4.8,0.,4.8
1979-07-14 12:22:23.380 ,3,1,1.,4.8,0.,4.8,0.,4.8,0.,4.8
1979-07-14 12:22:28.180 ,3,1,7.,4.8,0.,4.8,0.,4.8,0.,4.8
1979-07-14 12:22:32.980 ,3,1,0.,4.8,0.,4.8,0.,4.8,0.,4.8
1979-07-14 12:22:37.780 ,3,1,3.,4.8,0.,4.8,0.,4.8,0.,4.8
1979-07-14 12:22:42.580 ,3,1,5.,4.8,0.,4.8,0.,4.8,0.,4.8
1979-07-14 12:22:47.380 ,0,1,5.,4.8,0.,4.8,0.,4.8,0.,4.8
1979-07-14 12:22:52.180 ,0,1,8.,4.8,0.,4.8,0.,4.8,0.,4.8
1979-07-14 12:22:56.980 ,0,1,6.,4.8,0.,4.8,0.,4.8,0.,4.8
1979-07-14 12:23:01.780 ,0,1,4.,4.8,0.,4.8,0.,4.8,1.,4.8
1979-07-14 12:23:06.580 ,0,1,6.,4.8,0.,4.8,0.,4.8,0.,4.8
1979-07-14 12:23:11.380 ,4,1,9.,4.8,0.,4.8,0.,4.8,0.,4.8
1979-07-14 12:23:16.180 ,4,1,6.,4.8,0.,4.8,0.,4.8,0.,4.8
1979-07-14 12:23:20.980 ,4,1,5.,4.8,0.,4.8,0.,4.8,0.,4.8
1979-07-14 12:23:25.780 ,4,1,11.,4.8,0.,4.8,0.,4.8,0.,4.8
1979-07-14 12:23:30.580 ,4,1,7.,4.8,0.,4.8,0.,4.8,0.,4.8
1979-07-14 12:23:35.380 ,7,1,3.,4.8,0.,4.8,0.,4.8,0.,4.8
1979-07-14 12:23:40.180 ,7,1,9.,4.8,0.,4.8,0.,4.8,0.,4.8
1979-07-14 12:23:44.980 ,7,1,8.,4.8,0.,4.8,0.,4.8,1.,4.8
1979-07-14 12:23:49.780 ,7,1,3.,4.8,0.,4.8,0.,4.8,0.,4.8
1979-07-14 12:23:54.580 ,7,1,4.,4.8,0.,4.8,0.,4.8,0.,4.8
1979-07-14 12:23:59.380 ,3,1,2.,4.8,0.,4.8,0.,4.8,0.,4.8
1979-07-14 12:24:04.180 ,3,1,4.,4.8,0.,4.8,0.,4.8,0.,4.8
1979-07-14 12:24:08.980 ,3,1,5.,4.8,0.,4.8,0.,4.8,0.,4.8
1979-07-14 12:24:13.780 ,3,1,7.,4.8,0.,4.8,0.,4.8,0.,4.8
1979-07-14 12:24:18.580 ,3,1,6.,4.8,0.,4.8,0.,4.8,0.,4.8
1979-07-14 12:24:23.380 ,0,1,5.,4.8,0.,4.8,0.,4.8,0.,4.8
1979-07-14 12:24:28.180 ,0,1,5.,4.8,0.,4.8,0.,4.8,0.,4.8
1979-07-14 12:24:32.980 ,0,1,1.,4.8,0.,4.8,0.,4.8,0.,4.8
1979-07-14 12:24:37.780 ,0,1,7.,4.8,0.,4.8,0.,4.8,0.,4.8
1979-07-14 12:24:42.580 ,0,1,9.,4.8,0.,4.8,0.,4.8,0.,4.8
1979-07-14 12:24:47.380 ,4,1,7.,4.8,0.,4.8,0.,4.8,1.,4.8
1979-07-14 12:24:52.180 ,4,1,5.,4.8,0.,4.8,0.,4.8,0.,4.8
1979-07-14 12:24:56.980 ,4,1,7.,4.8,0.,4.8,0.,4.8,0.,4.8
1979-07-14 12:25:01.780 ,4,1,4.,4.8,0.,4.8,0.,4.8,2.,4.8
1979-07-14 12:25:06.580 ,4,1,5.,4.8,0.,4.8,0.,4.8,0.,4.8
1979-07-14 12:25:11.380 ,7,1,5.,4.8,0.,4.8,0.,4.8,0.,4.8
1979-07-14 12:25:16.180 ,7,1,6.,4.8,0.,4.8,0.,4.8,0.,4.8
1979-07-14 12:25:20.980 ,7,1,3.,4.8,0.,4.8,0.,4.8,0.,4.8
1979-07-14 12:25:25.780 ,7,1,1.,4.8,0.,4.8,0.,4.8,0.,4.8
1979-07-14 12:25:30.580 ,7,1,3.,4.8,0.,4.8,0.,4.8,0.,4.8
1979-07-14 12:25:35.380 ,3,1,10.,4.8,0.,4.8,0.,4.8,0.,4.8
1979-07-14 12:25:40.180 ,3,1,5.,4.8,0.,4.8,0.,4.8,0.,4.8
1979-07-14 12:25:44.970 ,3,1,7.,4.8,0.,4.8,0.,4.8,0.,4.8
1979-07-14 12:25:49.780 ,3,1,6.,4.8,0.,4.8,0.,4.8,1.,4.8
1979-07-14 12:25:54.580 ,3,1,6.,4.8,0.,4.8,0.,4.8,0.,4.8
1979-07-14 12:25:59.380 ,0,1,4.,4.8,0.,4.8,0.,4.8,1.,4.8
1979-07-14 12:26:04.180 ,0,1,8.,4.8,0.,4.8,0.,4.8,0.,4.8
1979-07-14 12:26:08.970 ,0,1,12.,4.8,0.,4.8,0.,4.8,0.,4.8
1979-07-14 12:26:13.780 ,0,1,6.,4.8,0.,4.8,0.,4.8,0.,4.8
1979-07-14 12:26:18.580 ,0,1,5.,4.8,0.,4.8,0.,4.8,1.,4.8
1979-07-14 12:26:23.380 ,4,1,8.,4.8,0.,4.8,0.,4.8,0.,4.8
1979-07-14 12:26:28.180 ,4,1,5.,4.8,0.,4.8,0.,4.8,0.,4.8
1979-07-14 12:26:32.970 ,4,1,6.,4.8,0.,4.8,0.,4.8,0.,4.8
1979-07-14 12:26:37.780 ,4,1,3.,4.8,0.,4.8,0.,4.8,0.,4.8
1979-07-14 12:26:42.580 ,4,1,7.,4.8,0.,4.8,0.,4.8,0.,4.8
1979-07-14 12:26:47.380 ,7,1,4.,4.8,0.,4.8,0.,4.8,0.,4.8
1979-07-14 12:26:52.180 ,7,1,6.,4.8,0.,4.8,0.,4.8,0.,4.8
1979-07-14 12:26:56.970 ,7,1,8.,4.8,0.,4.8,0.,4.8,0.,4.8
1979-07-14 12:27:01.780 ,7,1,7.,4.8,0.,4.8,0.,4.8,0.,4.8
1979-07-14 12:27:06.580 ,7,1,2.,4.8,0.,4.8,0.,4.8,0.,4.8
1979-07-14 12:27:11.380 ,3,1,3.,4.8,0.,4.8,0.,4.8,0.,4.8
1979-07-14 12:27:16.180 ,3,1,4.,4.8,0.,4.8,0.,4.8,0.,4.8
1979-07-14 12:27:20.970 ,3,1,4.,4.8,0.,4.8,0.,4.8,0.,4.8
1979-07-14 12:27:25.780 ,3,1,10.,4.8,0.,4.8,0.,4.8,0.,4.8
1979-07-14 12:27:30.580 ,3,1,13.,4.8,0.,4.8,0.,4.8,0.,4.8
1979-07-14 12:27:35.380 ,0,1,5.,4.8,0.,4.8,0.,4.8,0.,4.8
1979-07-14 12:27:40.180 ,0,1,4.,4.8,0.,4.8,0.,4.8,0.,4.8
1979-07-14 12:27:44.970 ,0,1,6.,4.8,0.,4.8,0.,4.8,0.,4.8
1979-07-14 12:27:49.780 ,0,1,3.,4.8,0.,4.8,0.,4.8,0.,4.8
1979-07-14 12:27:54.580 ,0,1,1.,4.8,0.,4.8,0.,4.8,1.,4.8
1979-07-14 12:27:59.380 ,4,1,6.,4.8,0.,4.8,0.,4.8,0.,4.8
1979-07-14 12:28:04.180 ,4,1,5.,4.8,0.,4.8,0.,4.8,0.,4.8
1979-07-14 12:28:08.970 ,4,1,5.,4.8,0.,4.8,0.,4.8,0.,4.8
1979-07-14 12:28:13.780 ,4,1,8.,4.8,0.,4.8,0.,4.8,0.,4.8
1979-07-14 12:28:18.580 ,4,1,5.,4.8,0.,4.8,0.,4.8,0.,4.8
1979-07-14 12:28:23.380 ,7,1,4.,4.8,0.,4.8,0.,4.8,0.,4.8
1979-07-14 12:28:28.180 ,7,1,8.,4.8,0.,4.8,0.,4.8,0.,4.8
1979-07-14 12:28:32.970 ,7,1,3.,4.8,0.,4.8,0.,4.8,0.,4.8
1979-07-14 12:28:37.780 ,7,1,4.,4.8,0.,4.8,0.,4.8,0.,4.8
1979-07-14 12:28:42.580 ,7,1,2.,4.8,0.,4.8,0.,4.8,0.,4.8
1979-07-14 12:28:47.380 ,3,1,3.,4.8,0.,4.8,0.,4.8,0.,4.8
1979-07-14 12:28:52.180 ,3,1,4.,4.8,0.,4.8,0.,4.8,0.,4.8
1979-07-14 12:28:56.970 ,3,1,5.,4.8,0.,4.8,0.,4.8,0.,4.8
1979-07-14 12:29:01.780 ,3,1,7.,4.8,0.,4.8,0.,4.8,0.,4.8
1979-07-14 12:29:06.580 ,3,1,6.,4.8,0.,4.8,0.,4.8,0.,4.8
1979-07-14 12:29:11.380 ,0,1,7.,4.8,0.,4.8,0.,4.8,0.,4.8
1979-07-14 12:29:16.180 ,0,1,5.,4.8,0.,4.8,0.,4.8,0.,4.8
1979-07-14 12:29:20.970 ,0,1,15.,4.8,0.,4.8,0.,4.8,0.,4.8
1979-07-14 12:29:25.780 ,0,1,10.,4.8,0.,4.8,0.,4.8,1.,4.8
1979-07-14 12:29:30.580 ,0,1,6.,4.8,0.,4.8,0.,4.8,0.,4.8
1979-07-14 12:29:35.380 ,0,0,8.,4.8,0.,4.8,0.,4.8,0.,4.8
1979-07-14 12:29:40.180 ,0,0,2.,4.8,0.,4.8,0.,4.8,0.,4.8
1979-07-14 12:29:44.970 ,0,0,3.,4.8,0.,4.8,0.,4.8,1.,4.8
1979-07-14 12:29:49.780 ,0,0,6.,4.8,0.,4.8,0.,4.8,0.,4.8
1979-07-14 12:29:54.580 ,0,0,6.,4.8,0.,4.8,0.,4.8,0.,4.8
1979-07-14 12:29:59.380 ,0,0,6.,4.8,0.,4.8,0.,4.8,0.,4.8
1979-07-14 12:30:04.180 ,0,0,3.,4.8,0.,4.8,0.,4.8,0.,4.8
1979-07-14 12:30:08.970 ,0,0,8.,4.8,0.,4.8,0.,4.8,0.,4.8
1979-07-14 12:30:13.780 ,0,0,1.,4.8,0.,4.8,0.,4.8,0.,4.8
1979-07-14 12:30:18.580 ,0,0,2.,4.8,0.,4.8,0.,4.8,0.,4.8
1979-07-14 12:30:23.380 ,5,0,5.,4.8,0.,4.8,0.,4.8,0.,4.8
1979-07-14 12:30:28.180 ,5,0,5.,4.8,0.,4.8,0.,4.8,1.,4.8
1979-07-14 12:30:32.970 ,5,0,4.,4.8,0.,4.8,0.,4.8,1.,4.8
1979-07-14 12:30:37.780 ,5,0,6.,4.8,0.,4.8,0.,4.8,0.,4.8
1979-07-14 12:30:42.580 ,5,0,5.,4.8,0.,4.8,0.,4.8,0.,4.8
1979-07-14 12:30:47.380 ,5,0,11.,4.8,0.,4.8,0.,4.8,0.,4.8
1979-07-14 12:30:52.180 ,5,0,2.,4.8,0.,4.8,0.,4.8,0.,4.8
1979-07-14 12:30:56.970 ,5,0,9.,4.8,0.,4.8,0.,4.8,0.,4.8
1979-07-14 12:31:01.780 ,5,0,9.,4.8,0.,4.8,0.,4.8,0.,4.8
1979-07-14 12:31:06.580 ,5,0,9.,4.8,0.,4.8,0.,4.8,0.,4.8
1979-07-14 12:31:11.380 ,4,0,7.,4.8,0.,4.8,0.,4.8,0.,4.8
1979-07-14 12:31:16.180 ,4,0,9.,4.8,0.,4.8,0.,4.8,1.,4.8
1979-07-14 12:31:20.970 ,4,0,8.,4.8,0.,4.8,0.,4.8,0.,4.8
1979-07-14 12:31:25.780 ,4,0,5.,4.8,0.,4.8,0.,4.8,0.,4.8
1979-07-14 12:31:30.580 ,4,0,10.,4.8,0.,4.8,0.,4.8,0.,4.8
1979-07-14 12:31:35.380 ,4,0,4.,4.8,0.,4.8,0.,4.8,0.,4.8
1979-07-14 12:31:40.180 ,4,0,11.,4.8,0.,4.8,0.,4.8,0.,4.8
1979-07-14 12:31:44.970 ,4,0,4.,4.8,0.,4.8,0.,4.8,0.,4.8
1979-07-14 12:31:49.780 ,4,0,5.,4.8,0.,4.8,0.,4.8,0.,4.8
1979-07-14 12:31:54.580 ,4,0,7.,4.8,0.,4.8,0.,4.8,0.,4.8
1979-07-14 12:31:59.380 ,3,0,4.,4.8,0.,4.8,0.,4.8,0.,4.8
1979-07-14 12:32:04.180 ,3,0,4.,4.8,0.,4.8,0.,4.8,0.,4.8
1979-07-14 12:32:08.970 ,3,0,10.,4.8,0.,4.8,0.,4.8,0.,4.8
1979-07-14 12:32:13.780 ,3,0,7.,4.8,0.,4.8,0.,4.8,0.,4.8
1979-07-14 12:32:18.580 ,3,0,5.,4.8,0.,4.8,0.,4.8,0.,4.8
1979-07-14 12:32:23.380 ,3,0,5.,4.8,0.,4.8,0.,4.8,1.,4.8
1979-07-14 12:32:28.180 ,3,0,12.,4.8,0.,4.8,0.,4.8,0.,4.8
1979-07-14 12:32:32.970 ,3,0,7.,4.8,0.,4.8,0.,4.8,0.,4.8
1979-07-14 12:32:37.780 ,3,0,5.,4.8,0.,4.8,0.,4.8,0.,4.8
1979-07-14 12:32:42.580 ,3,0,4.,4.8,0.,4.8,0.,4.8,0.,4.8
1979-07-14 12:32:47.380 ,2,0,12.,4.8,0.,4.8,0.,4.8,0.,4.8
1979-07-14 12:32:52.180 ,2,0,8.,4.8,0.,4.8,0.,4.8,0.,4.8
1979-07-14 12:32:56.970 ,2,0,4.,4.8,0.,4.8,0.,4.8,0.,4.8
1979-07-14 12:33:01.780 ,2,0,5.,4.8,0.,4.8,0.,4.8,0.,4.8
1979-07-14 12:33:06.580 ,2,0,5.,4.8,0.,4.8,0.,4.8,0.,4.8
1979-07-14 12:33:11.380 ,2,0,5.,4.8,0.,4.8,0.,4.8,0.,4.8
1979-07-14 12:33:16.180 ,2,0,7.,4.8,0.,4.8,0.,4.8,0.,4.8
1979-07-14 12:33:20.970 ,2,0,7.,4.8,0.,4.8,0.,4.8,0.,4.8
1979-07-14 12:33:25.780 ,2,0,5.,4.8,0.,4.8,0.,4.8,0.,4.8
1979-07-14 12:33:30.580 ,2,0,6.,4.8,0.,4.8,0.,4.8,1.,4.8
1979-07-14 12:33:35.380 ,1,0,5.,4.8,0.,4.8,0.,4.8,0.,4.8
1979-07-14 12:33:40.180 ,1,0,6.,4.8,0.,4.8,0.,4.8,0.,4.8
1979-07-14 12:33:44.970 ,1,0,6.,4.8,0.,4.8,0.,4.8,0.,4.8
1979-07-14 12:33:49.780 ,1,0,7.,4.8,0.,4.8,0.,4.8,1.,4.8
1979-07-14 12:33:54.580 ,1,0,7.,4.8,0.,4.8,0.,4.8,1.,4.8
1979-07-14 12:33:59.380 ,1,0,7.,4.8,0.,4.8,0.,4.8,0.,4.8
1979-07-14 12:34:04.180 ,1,0,8.,4.8,0.,4.8,0.,4.8,0.,4.8
1979-07-14 12:34:08.980 ,1,0,3.,4.8,0.,4.8,0.,4.8,0.,4.8
1979-07-14 12:34:13.780 ,1,0,13.,4.8,0.,4.8,0.,4.8,0.,4.8
1979-07-14 12:34:18.570 ,1,0,9.,4.8,0.,4.8,0.,4.8,0.,4.8
1979-07-14 12:34:23.380 ,0,0,5.,4.8,0.,4.8,0.,4.8,0.,4.8
1979-07-14 12:34:28.170 ,0,0,5.,4.8,0.,4.8,0.,4.8,0.,4.8
1979-07-14 12:34:32.970 ,0,0,5.,4.8,0.,4.8,0.,4.8,0.,4.8